Weather History for Cross City, FL

Change the Weather History Date:

Sunday, September 15, 2013

  Actual Average Record
Temperature  
Mean Temperature 83 °F 79 °F  
Max Temperature 96 °F 89 °F 96 °F (2013)
Min Temperature 70 °F 69 °F 62 °F (2010)
Cooling Degree Days 18 14  
Month to date cooling degree days 251 220  
Year to date cooling degree days 2296 2158  
Growing Degree Days 33 (Base 50)    
Moisture  
Dew Point 72 °F    
Average Humidity 79    
Maximum Humidity 100    
Minimum Humidity 46    
Precipitation  
Precipitation 0.17 in 0.16 in 0.57 in (2003)
Month to date precipitation 0.71 2.66  
Year to date precipitation 53.49 38.03  
Sea Level Pressure  
Sea Level Pressure 30.03 in    
Wind  
Wind Speed 3 mph (East)    
Max Wind Speed 22 mph    
Max Gust Speed 29 mph    
T = Trace of Precipitation, MM = Missing Value Source: NWS Daily Summary

Daily Weather History Graph

Daily Weather History Graph

Search for Another Location

Airport:

Trip Planner

Search our weather history database for the weather conditions in past years. The results will help you decide how hot, cold, wet, or windy it might be!

Date:

Astronomy

Sep. 15, 2013 Rise Set
Actual Time 7:17 AM EDT 7:37 PM EDT
Civil Twilight 6:53 AM EDT 8:01 PM EDT
Nautical Twilight 6:25 AM EDT 8:29 PM EDT
Astronomical Twilight 5:57 AM EDT 8:57 PM EDT
Moon 4:51 PM EDT (9/15) 3:09 AM EDT (9/15)
Length of Visible Light 13h 07m
Length of Day
12h 20m
Waxing Gibbous, 82% of the Moon is Illuminated
Sep 15
Waxing Gibbous
Sep 19
Full
Sep 26
Last Quarter
Oct 4
New
Oct 11
First Quarter

Hourly Weather History & Observations

Time (EDT) Temp. Heat Index Dew Point Humidity Pressure Visibility Wind Dir Wind Speed Gust Speed Precip Events Conditions
12:53 AM 75.0 °F - 73.0 °F 94% 29.99 in - Calm Calm - N/A   Unknown
1:53 AM 73.9 °F - 72.0 °F 93% 29.99 in - Calm Calm - 0.01 in   Unknown
2:53 AM 73.0 °F - 72.0 °F 96% 29.99 in - East 3.5 mph - N/A   Unknown
3:53 AM 73.0 °F - 72.0 °F 96% 29.99 in - Calm Calm - N/A   Unknown
4:53 AM 73.0 °F - 71.1 °F 93% 29.99 in - Calm Calm - N/A   Unknown
5:53 AM 72.0 °F - 70.0 °F 93% 30.00 in - NE 3.5 mph - N/A   Unknown
6:53 AM 71.1 °F - 69.1 °F 93% 30.01 in - Calm Calm - N/A   Unknown
7:53 AM 72.0 °F - 70.0 °F 93% 30.03 in - NE 3.5 mph - N/A   Unknown
8:53 AM 77.0 °F - 73.0 °F 88% 30.04 in - East 3.5 mph - N/A   Unknown
9:53 AM 84.0 °F 91.9 °F 75.0 °F 74% 30.06 in - Variable 3.5 mph - N/A   Unknown
10:53 AM 88.0 °F 96.5 °F 73.9 °F 63% 30.06 in - Variable 3.5 mph - N/A   Unknown
11:53 AM 91.0 °F 99.3 °F 73.0 °F 55% 30.06 in - East 6.9 mph - N/A   Unknown
12:53 PM 91.9 °F 98.4 °F 71.1 °F 50% 30.05 in - East 6.9 mph - N/A   Unknown
1:53 PM 91.0 °F 98.2 °F 72.0 °F 53% 30.04 in - ENE 5.8 mph - N/A   Unknown
2:53 PM 95.0 °F 103.2 °F 72.0 °F 47% 30.01 in - East 8.1 mph - N/A   Unknown
3:53 PM 93.9 °F 100.8 °F 71.1 °F 47% 30.00 in - ESE 4.6 mph - N/A   Unknown
4:53 PM 91.9 °F 97.4 °F 70.0 °F 48% 29.99 in - East 5.8 mph - N/A   Unknown
5:53 PM 84.0 °F 88.4 °F 70.0 °F 63% 30.02 in - SSE 11.5 mph 21.9 mph N/A   Unknown
6:53 PM 75.0 °F - 72.0 °F 90% 30.06 in - SW 8.1 mph - 0.02 in   Unknown
7:53 PM 73.9 °F - 73.0 °F 97% 30.04 in - Calm Calm - 0.12 in   Unknown
8:53 PM 73.9 °F - 72.0 °F 93% 30.07 in - Calm Calm - 0.01 in   Unknown
9:53 PM 73.9 °F - 72.0 °F 93% 30.08 in - Calm Calm - N/A   Unknown
10:53 PM 73.9 °F - 73.0 °F 97% 30.10 in - Calm Calm - N/A   Unknown
11:53 PM 73.9 °F - 72.0 °F 93% 30.09 in - Calm Calm - N/A   Unknown